Weather History for EHDL - November, 2012

Change the Weather History Date:

Friday, November 16, 2012

  Actual Average Record
Temperature  
Mean Temperature 36 °F -  
Max Temperature 39 °F 43 °F 62 °F (2006)
Min Temperature 33 °F 35 °F 28 °F (1999)
Degree Days  
Heating Degree Days 29    
Moisture  
Dew Point 33 °F    
Average Humidity 84    
Maximum Humidity 93    
Minimum Humidity 81    
Precipitation  
Precipitation 0.00 in - - ()
Sea Level Pressure  
Sea Level Pressure 30.05 in    
Wind  
Wind Speed 5 mph ()    
Max Wind Speed 9 mph    
Max Gust Speed -    
Visibility 3.3 miles    
Events      
Averages and records for this station are not official NWS values.
T = Trace of Precipitation, MM = Missing Value Source: Averaged Metar Reports

Daily Weather History Graph

Daily Weather History Graph

Search for Another Location

Airport or City:

Trip Planner

Search our weather history database for the weather conditions in past years. The results will help you decide how hot, cold, wet, or windy it might be!

Date:

Astronomy

Nov. 16, 2012 Rise Set
Actual Time 7:58 AM CET 4:43 PM CET
Civil Twilight 7:21 AM CET 5:20 PM CET
Nautical Twilight 6:39 AM CET 6:02 PM CET
Astronomical Twilight 5:59 AM CET 6:42 PM CET
Moon 10:46 AM CET (11/16) 7:17 PM CET (11/16)
Length of Visible Light 9h 59m
Length of Day
8h 44m
Waxing Crescent, 9% of the Moon is Illuminated
Nov 16
Waxing Crescent
Nov 20
First Quarter
Nov 28
Full
Dec 6
Last Quarter
Dec 13
New

Hourly Weather History & Observations

Time (CET) Temp. Windchill Dew Point Humidity Pressure Visibility Wind Dir Wind Speed Gust Speed Precip Events Conditions
12:25 AM 37.4 °F 32.1 °F 33.8 °F 87% 30.15 in 3.7 mi SSE 6.9 mph - N/A   Overcast
12:55 AM 37.4 °F 32.1 °F 33.8 °F 87% 30.12 in 3.1 mi SSE 6.9 mph - N/A   Overcast
1:25 AM 37.4 °F 34.9 °F 33.8 °F 87% 30.12 in 3.1 mi South 3.5 mph - N/A   Overcast
1:55 AM 39.2 °F 37.0 °F 33.8 °F 81% 30.12 in 3.1 mi South 3.5 mph - N/A   Overcast
2:25 AM 39.2 °F 37.0 °F 33.8 °F 81% 30.12 in 3.1 mi SSW 3.5 mph - N/A   Overcast
2:55 AM 39.2 °F 37.0 °F 33.8 °F 81% 30.12 in 3.1 mi South 3.5 mph - N/A   Overcast
3:25 AM 39.2 °F 35.0 °F 33.8 °F 81% 30.12 in 3.7 mi South 5.8 mph - N/A   Overcast
3:55 AM 39.2 °F 37.0 °F 33.8 °F 81% 30.12 in 3.1 mi South 3.5 mph - N/A   Overcast
4:25 AM 39.2 °F 35.9 °F 33.8 °F 81% 30.09 in 3.1 mi South 4.6 mph - N/A   Overcast
4:55 AM 39.2 °F 35.9 °F 33.8 °F 81% 30.09 in 3.7 mi South 4.6 mph - N/A   Overcast
5:25 AM 39.2 °F 35.9 °F 33.8 °F 81% 30.09 in 3.7 mi SSE 4.6 mph - N/A   Overcast
5:55 AM 39.2 °F 34.2 °F 33.8 °F 81% 30.09 in 3.7 mi SSE 6.9 mph - N/A   Overcast
6:25 AM 39.2 °F 37.0 °F 33.8 °F 81% 30.09 in 3.7 mi SE 3.5 mph - N/A   Overcast
6:55 AM 39.2 °F 35.0 °F 33.8 °F 81% 30.09 in 3.7 mi SSE 5.8 mph - N/A   Overcast
7:25 AM 39.2 °F 35.0 °F 33.8 °F 81% 30.09 in 3.7 mi SSE 5.8 mph - N/A   Overcast
7:55 AM 37.4 °F 31.4 °F 33.8 °F 87% 30.09 in 3.1 mi SSE 8.1 mph - N/A   Overcast
8:25 AM 39.2 °F 35.0 °F 33.8 °F 81% 30.09 in 3.1 mi South 5.8 mph - N/A   Overcast
8:55 AM 39.2 °F 35.9 °F 33.8 °F 81% 30.09 in 3.1 mi South 4.6 mph - N/A   Overcast
9:25 AM 39.2 °F 35.0 °F 33.8 °F 81% 30.09 in 3.1 mi South 5.8 mph - N/A   Overcast
9:55 AM 39.2 °F 35.0 °F 33.8 °F 81% 30.09 in 3.1 mi South 5.8 mph - N/A   Overcast
10:25 AM 39.2 °F 33.6 °F 33.8 °F 81% 30.09 in 3.7 mi SSW 8.1 mph - N/A   Overcast
10:55 AM 39.2 °F 33.0 °F 33.8 °F 81% 30.09 in 3.7 mi SSW 9.2 mph - N/A   Overcast
11:25 AM 39.2 °F 34.2 °F 33.8 °F 81% 30.09 in 3.7 mi South 6.9 mph - N/A   Overcast
11:55 AM 39.2 °F 33.6 °F 33.8 °F 81% 30.06 in 3.7 mi South 8.1 mph - N/A   Overcast
12:25 PM 39.2 °F 33.6 °F 33.8 °F 81% 30.06 in 3.7 mi SSE 8.1 mph - N/A   Overcast
12:55 PM 39.2 °F 34.2 °F 33.8 °F 81% 30.06 in 3.7 mi South 6.9 mph - N/A   Overcast
1:25 PM 39.2 °F 33.6 °F 33.8 °F 81% 30.04 in 3.7 mi SSE 8.1 mph - N/A   Overcast
1:55 PM 39.2 °F 34.2 °F 33.8 °F 81% 30.04 in 3.7 mi SSE 6.9 mph - N/A   Overcast
2:25 PM 39.2 °F 33.6 °F 33.8 °F 81% 30.04 in 3.7 mi SE 8.1 mph - N/A   Overcast
2:55 PM 39.2 °F 34.2 °F 33.8 °F 81% 30.04 in 3.7 mi SSE 6.9 mph - N/A   Overcast
3:25 PM 39.2 °F 34.2 °F 33.8 °F 81% 30.04 in 3.7 mi South 6.9 mph - N/A   Overcast
3:55 PM 39.2 °F 34.2 °F 33.8 °F 81% 30.04 in 3.7 mi SSE 6.9 mph - N/A   Overcast
4:25 PM 39.2 °F 34.2 °F 33.8 °F 81% 30.01 in 3.7 mi SSE 6.9 mph - N/A   Overcast
4:55 PM 39.2 °F 34.2 °F 33.8 °F 81% 30.01 in 3.1 mi SSE 6.9 mph - N/A   Overcast
5:25 PM 37.4 °F 32.8 °F 33.8 °F 87% 30.01 in 3.1 mi SSE 5.8 mph - N/A   Overcast
5:55 PM 37.4 °F 32.8 °F 33.8 °F 87% 30.01 in 3.1 mi SE 5.8 mph - N/A   Overcast
6:25 PM 37.4 °F 33.8 °F 33.8 °F 87% 30.01 in 3.1 mi South 4.6 mph - N/A   Mostly Cloudy
6:55 PM 35.6 °F - 32.0 °F 87% 30.01 in - SSE 2.3 mph - N/A   Mist
7:25 PM 33.8 °F - 32.0 °F 93% 30.01 in - East 2.3 mph - N/A   Mist
7:55 PM 33.8 °F 30.8 °F 32.0 °F 93% 30.01 in 1.7 mi East 3.5 mph - N/A   Mist
8:25 PM 35.6 °F 29.2 °F 33.8 °F 93% 29.98 in 1.8 mi ESE 8.1 mph - N/A   Mist
8:55 PM 35.6 °F 32.8 °F 32.0 °F 87% 29.98 in 1.9 mi ESE 3.5 mph - N/A   Mist
9:25 PM 33.8 °F 29.6 °F 32.0 °F 93% 29.98 in - SE 4.6 mph - N/A   Mist
9:55 PM 35.6 °F 29.9 °F 33.8 °F 93% 29.95 in - SE 6.9 mph - N/A   Mist
10:25 PM 35.6 °F 30.7 °F 32.0 °F 87% 29.95 in 2.5 mi SE 5.8 mph - N/A   Mist
10:55 PM 35.6 °F 30.7 °F 32.0 °F 87% 29.95 in - SE 5.8 mph - N/A   Mist
11:25 PM 33.8 °F 28.6 °F 32.0 °F 93% 29.95 in - ESE 5.8 mph - N/A   Mist
11:55 PM 33.8 °F 29.6 °F 32.0 °F 93% 29.92 in - SE 4.6 mph - N/A   Mist